User: anonymous   Login
Location: Chmeln�
(49.6483°N, 14.9871°E)
Time: 05:39:08
(UTC+00:00)
Language:

Cosmos 1300 Rocket - Orbit

View from above orbital plane
View from above orbital plane
View from above satellite
View from above satellite

Ground track
Ground track

The orbit data is extracted from the following two-line orbital elements,

1 12786U 81082B   20333.44984347 +.00000129 +00000-0 +12301-4 0  9990
2 12786 082.4906 219.8230 0018851 057.1424 303.1602 14.84806399100723
Epoch (UTC): 28 November 2020 10:47:46
Eccentricity: 0.0018851
inclination: 82.4906°
perigee height: 601 km
apogee height: 627 km
right ascension of ascending node: 219.8230°
argument of perigee: 57.1424°
revolutions per day: 14.84806399
mean anomaly at epoch: 303.1602°
orbit number at epoch: 10072

The dashed part of the orbit path shows where the satellite is in the earth's shadow,  

DLR